Weather in Kuzminskiy

Russia / Tambov Oblast     52°24′47″N   41°15′10″E
temp.,
°C
wind,
m/s
gust,
m/s
humid.,
%
clouds,
%
prec.,
mm/h
press.,
hPa
HPBL,
m
28 february, sun
sun2800:00−9nnw489498 0.0 1012321
03:00−10nw359586 0.0 1014174
06:00−11nw369424 0.0 1015182
09:00−9nw359346 0.1 1015273
12:00−6nw358998 0.1 1016505
15:00−6nw468999 0.1 1016467
18:00−7nnw2594100 0.0 1017163
21:00−8n259597 0.1 1019184
1 march, mon
mon100:00−9n229587 0.0 102129
03:00−10nnw229581 0.1 102221
06:00−10nw229582 0.0 102325
09:00−6nw249291 0.1 1026272
12:00−4nw3485100 0.1 1026608
15:00−4w348698 0.1 1025442
18:00−5wsw489467 0.0 1024226
21:00−3wsw5109283 0.0 1023500
2 march, tue
tue200:00−4wsw61393100 0.0 1020398
03:00−2wsw71493100 0.1 1017492
06:00−1wsw71592100 0.3 1013596
09:00+1w81597100 1.1 1010747
12:00+1wnw81398100 0.5 1008701
15:00+1nw6129599 0.9 1008823
18:00−1wnw5138964 0.1 1009379
21:00−2wnw6129478 0.3 1010470
3 march, wed
wed300:00−3wnw61394100 0.1 1010495
03:00−3nw6119199 0.3 1011607
06:00−3nw61292100 0.1 1011656
09:00−4nnw8128998 0.2 1013758
12:00−3nw71185100 0.1 1015928
15:00−2nnw81181100 0.2 10161073
18:00−3nw61390100 0.1 1017767
21:00−5nw5129170 0.1 1019403
4 march, thu
thu400:00−6wnw38940 0.0 1020168
03:00−6w489629 0.0 1020155
06:00−7wsw489427 0.0 1020147
09:00−4wsw6119113 0.0 1019342
12:00−1wsw7128523 0.0 1017584
15:000wsw7138134 0.0 1015669
18:00−1sw6148258 0.0 1012405
21:00−1sw7168341 0.0 1011535